This demonstration page uses our WeatherBlox Daily Observations layout. Learn more.

Left ArrowRight Arrow

38.20091, -84.87328

Hourly Observations for October 31, 2021

Temp ( °F °C ) Dew Point ( °F °C ) Humidity (%) Winds ( mph kmh ) Pressure ( in mb ) Visibility ( mi km ) Precip ( " mm )
12:10 am 00:10 Cloudy with Light Rain 53 11.7 52 11.1 96 96 NW 5 7 29.74 1007 4 6 0.01 0.25
12:19 am 00:19 Cloudy with Mist and Fog 53 11.7 52 11.1 96 96 NW 6 9 29.74 1007 5 8 0.01 0.25
12:53 am 00:53 Cloudy with Mist and Fog 53 11.7 52 11.1 96 96 NW 5 7 29.75 1007 6 10 0.01 0.25
1:39 am 01:39 Cloudy 53 11.7 51 10.6 93 93 NW 6 9 29.75 1008 10 16 0.01 0.25
1:53 am 01:53 Cloudy 53 11.7 51 10.6 93 93 WNW 6 9 29.75 1008 10 16 0.01 0.25
2:14 am 02:14 Cloudy 53 11.7 51 10.6 93 93 WNW 6 9 29.76 1008 10 16 N/A
2:22 am 02:22 Cloudy 53 11.7 51 10.6 93 93 W 6 9 29.76 1008 10 16 N/A
2:53 am 02:53 Cloudy 53 11.7 51 10.6 93 93 WNW 6 9 29.76 1008 10 16 N/A
3:07 am 03:07 Cloudy 53 11.7 51 10.6 93 93 WNW 6 9 29.77 1008 10 16 N/A
3:53 am 03:53 Cloudy 53 11.7 51 10.6 93 93 W 5 7 29.78 1008 10 16 N/A
4:05 am 04:05 Cloudy 53 11.7 51 10.6 93 93 W 5 7 29.78 1009 10 16 N/A
4:27 am 04:27 Cloudy 53 11.7 51 10.6 93 93 W 5 7 29.79 1009 10 16 N/A
4:39 am 04:39 Cloudy 52 11.1 51 10.6 97 97 W 5 7 29.81 1009 10 16 N/A
4:50 am 04:50 Cloudy 52 11 52 11 100 100 W 6 9 29.81 1009 10 16 N/A
4:53 am 04:53 Cloudy 52 11.1 51 10.6 97 97 W 5 7 29.80 1009 10 16 N/A
5:00 am 05:00 Cloudy 53 11.7 50 10 89 89 W 6 9 29.81 1010 10 16 N/A
5:28 am 05:28 Cloudy 52 11.1 50 10 93 93 W 6 9 29.83 1010 9 14 N/A
5:53 am 05:53 Cloudy 52 11.1 50 10 93 93 W 6 9 29.83 1010 10 16 N/A
6:11 am 06:11 Cloudy 52 11.1 49 9.4 89 89 W 5 7 29.85 1011 10 16 N/A
6:20 am 06:20 Mostly Cloudy 52 11.1 49 9.4 89 89 WNW 8 13 29.85 1011 10 16 N/A
6:29 am 06:29 Partly Cloudy 51 10.6 49 9.4 92 92 W 8 13 29.86 1011 10 16 N/A
6:53 am 06:53 Mostly Cloudy 51 10.6 48 8.9 89 89 W 6 9 29.85 1011 10 16 N/A
7:53 am 07:53 Cloudy 51 10.6 49 9.4 92 92 WSW 3 6 29.88 1012 10 16 N/A
8:53 am 08:53 Cloudy 50 10 49 9.4 96 96 SW 5 7 29.90 1013 10 16 N/A
9:32 am 09:32 Cloudy 52 11.1 50 10 93 93 WSW 6 9 29.94 1014 10 16 N/A
9:53 am 09:53 Cloudy 53 11.7 51 10.6 93 93 WSW 5 7 29.93 1014 10 16 N/A
10:53 am 10:53 Cloudy 55 12.8 50 10 83 83 W 8 13 29.94 1014 10 16 N/A
11:53 am 11:53 Cloudy 57 13.9 50 10 78 78 WSW 6 9 29.96 1015 10 16 N/A
12:53 pm 12:53 Cloudy 59 15 49 9.4 69 69 W 8 13 29.97 1015 10 16 N/A
1:53 pm 13:53 Mostly Cloudy 60 15.6 47 8.3 62 62 W 12 19 29.97 1015 10 16 N/A
2:53 pm 14:53 Cloudy 60 15.6 48 8.9 65 65 W 10 17 29.96 1015 10 16 N/A
3:53 pm 15:53 Cloudy 61 16.1 48 8.9 63 63 WSW 7 11 29.97 1015 10 16 N/A
4:53 pm 16:53 Mostly Cloudy 62 16.7 47 8.3 58 58 W 12 19 29.98 1015 10 16 N/A
5:53 pm 17:53 Mostly Sunny 60 15.6 47 8.3 62 62 WSW 5 7 30.00 1016 10 16 N/A
6:53 pm 18:53 Cloudy 57 13.9 49 9.4 74 74 SW 5 7 30.01 1016 10 16 N/A
7:53 pm 19:53 Cloudy 56 13.3 49 9.4 77 77 SW 6 9 30.04 1017 10 16 N/A
8:53 pm 20:53 Cloudy 53 11.7 49 9.4 86 86 SW 5 7 30.06 1018 10 16 N/A
9:53 pm 21:53 Cloudy 54 12.2 48 8.9 80 80 W 5 7 30.09 1019 10 16 N/A
10:53 pm 22:53 Mostly Cloudy 55 12.8 47 8.3 74 74 NW 6 9 30.12 1020 10 16 N/A
11:50 pm 23:50 Mostly Cloudy 54 12 46 8 77 77 NW 9 15 30.14 1021 10 16 N/A
11:53 pm 23:53 Mostly Cloudy 53 11.7 47 8.3 80 80 NW 10 17 30.14 1021 10 16 N/A

Powered by AerisWeather